This demonstration page uses our WeatherBlox Daily Observations layout. Learn more.

Left ArrowRight Arrow

34.74481, -87.66753

Hourly Observations for May 23, 2019

Temp ( °F °C ) Dew Point ( °F °C ) Humidity (%) Winds ( mph kmh ) Pressure ( in mb ) Visibility ( mi km ) Precip ( " mm )
12:53 am 00:53 Clear 72 22.2 65 18.3 79 79 SSE 5 7 30.08 1019 10 16 0.00 0.00
1:53 am 01:53 Clear 71 21.7 66 18.9 84 84 ENE 3 6 30.07 1018 10 16 0.00 0.00
2:53 am 02:53 Clear 70 21.1 65 18.3 84 84 ESE 3 6 30.08 1019 10 16 0.00 0.00
3:53 am 03:53 Clear 68 20 65 18.3 90 90 E 5 7 30.10 1019 10 16 0.00 0.00
4:53 am 04:53 Clear 68 20 64 17.8 87 87 E 3 6 30.14 1021 10 16 0.00 0.00
5:53 am 05:53 Sunny 68 20 64 17.8 87 87 Calm 30.16 1022 10 16 0.00 0.00
6:53 am 06:53 Sunny 71 21.7 65 18.3 81 81 Calm 30.19 1022 10 16 0.00 0.00
7:53 am 07:53 Sunny 76 24.4 67 19.4 74 74 S 3 6 30.19 1022 10 16 0.00 0.00
8:45 am 08:45 Mostly Sunny 80 26.7 69 20.6 69 69 SSW 5 7 30.20 1023 10 16 0.00 0.00
8:53 am 08:53 Sunny 81 27.2 69 20.6 67 67 WSW 6 9 30.21 1023 10 16 0.00 0.00
9:06 am 09:06 Mostly Sunny 82 27.8 69 20.6 65 65 WSW 5 7 30.20 1023 10 16 0.00 0.00
9:53 am 09:53 Mostly Sunny 85 29.4 68 20 57 57 W 8 13 30.21 1023 10 16 0.00 0.00
10:53 am 10:53 Sunny 87 30.6 64 17.8 46 46 SW 12 19 30.21 1023 10 16 0.00 0.00
11:09 am 11:09 Mostly Sunny 88 31.1 63 17.2 43 43 SW 9 15 30.20 1023 10 16 0.00 0.00
11:53 am 11:53 Mostly Sunny 89 31.7 65 18.3 45 45 SSW 10 17 30.20 1023 10 16 0.00 0.00
12:53 pm 12:53 Mostly Sunny 92 33.3 62 16.7 37 37 undefined N/A 30.19 1022 10 16 0.00 0.00
1:53 pm 13:53 Sunny 92 33.3 62 16.7 37 37 WSW 7 11 30.17 1022 10 16 0.00 0.00
2:53 pm 14:53 Mostly Sunny 91 32.8 61 16.1 37 37 SSW 6 9 30.16 1021 10 16 0.00 0.00
3:53 pm 15:53 Sunny 92 33.3 60 15.6 34 34 S 8 13 30.14 1021 10 16 0.00 0.00
4:53 pm 16:53 Sunny 93 33.9 61 16.1 34 34 VRB 5 7 30.13 1020 10 16 0.00 0.00
5:53 pm 17:53 Sunny 91 32.8 61 16.1 37 37 W 5 7 30.12 1020 10 16 0.00 0.00
6:53 pm 18:53 Sunny 89 31.7 63 17.2 42 42 SW 6 9 30.10 1019 10 16 0.00 0.00
7:53 pm 19:53 Clear 84 28.9 64 17.8 51 51 SSW 3 6 30.10 1019 10 16 0.00 0.00
8:53 pm 20:53 Clear 77 25 67 19.4 71 71 Calm 30.10 1019 10 16 0.00 0.00
9:53 pm 21:53 Clear 74 23.3 68 20 82 82 Calm 30.11 1020 10 16 0.00 0.00
10:53 pm 22:53 Clear 73 22.8 68 20 84 84 Calm 30.12 1020 10 16 0.00 0.00

Powered by AerisWeather